GFSNIL_con_mlcape_021.txt.gz
CAPE
2968 2148 1803 1584 1234 392 252 361 1311 1319 811 272 376 351 274 40 25 16 0 2 0 0
3071 2665 1571 1563 1801 1245 463 161 470 1162 627 421 275 343 149 39 94 67 30 2 15 6
3048 3072 2681 2377 2329 1689 882 355 758 863 579 413 344 360 197 65 103 123 50 0 0 5
2889 2715 2951 2509 2431 2247 1441 1051 709 871 622 387 484 218 353 298 228 96 139 75 33 40
2939 2599 2571 2698 2541 2683 1857 1404 854 888 651 468 290 52 5 146 126 30 69 153 133 109
3036 2770 2474 2780 2658 2718 2252 1377 908 887 630 366 212 33 16 71 106 132 151 161 152 170
3139 3039 2753 2717 2810 2893 2204 1421 904 810 649 260 262 12 41 21 173 176 241 175 198 209
3180 3124 3016 2552 2715 2808 2013 1471 938 604 466 275 86 12 6 45 160 350 334 148 366 411
3416 3173 3057 2837 2522 2591 2034 1123 894 678 176 215 0 0 2 78 33 211 232 359 472 535
3469 3422 3277 2967 2677 2462 1760 1168 656 361 288 0 14 0 0 0 16 88 244 423 660 535
3531 3553 3305 2799 2571 2203 1546 1274 817 496 107 17 321 24 0 0 15 129 187 241 777 629
3383 3581 3143 2567 2297 1868 1541 1284 1018 520 162 131 367 52 0 0 41 87 353 698 790 817
3392 3232 2855 2531 2204 1821 1602 1224 999 646 459 305 385 383 14 11 210 45 195 585 781 487
2969 2945 2700 2094 1965 1569 1272 1034 816 677 545 317 687 659 240 19 259 40 152 573 425 135

GFSNIL_con_mlcape_024.txt.gz
CAPE
1975 2879 2114 1586 1822 993 812 914 978 1028 839 767 183 453 319 302 36 82 40 7 15 0
2951 2191 2634 1807 1779 1458 513 1231 1138 1081 1143 573 699 461 449 93 87 186 185 69 78 19
3446 2735 2407 2264 1875 1246 1669 776 1372 1330 1167 659 479 553 437 114 194 176 168 136 60 124
3505 3479 2751 2541 2169 2215 1455 1031 1530 1479 1120 752 641 600 378 173 305 197 124 50 28 78
3592 3543 3400 2462 2897 2592 2266 1940 1134 1262 1023 891 664 605 377 71 278 215 193 229 125 142
3459 3395 3296 3246 2502 2848 2586 2020 1161 1409 1103 1038 671 587 334 434 410 10 3 85 200 209
3371 3287 3191 3217 3167 2868 2990 2411 1815 1381 1300 1113 919 608 315 471 539 206 153 388 271 202
3440 3480 3410 3054 3257 2974 3281 2866 2258 1480 1454 1345 937 737 411 222 512 496 254 446 381 346
3310 3703 3580 3314 3106 3270 3168 3107 2527 1729 1462 1299 925 468 138 190 549 446 354 380 313 102
3136 3579 3708 3618 3193 3252 3111 3063 2479 1803 1519 1247 929 211 0 35 410 372 439 594 347 499
3448 3796 3832 3615 3434 3065 3294 3109 2253 1877 1415 1081 704 34 0 0 18 131 320 366 488 469
3888 4180 3930 3780 3530 3434 3161 2917 2271 1538 1127 806 354 14 31 0 0 0 99 420 455 678
4300 4189 4111 3971 3755 3435 2991 2399 2079 1713 1222 786 377 173 191 11 61 84 190 360 277 305
3961 4204 4278 3794 3268 2925 2421 2027 1820 1449 1022 685 429 367 172 139 229 170 356 285 351 476

GFSNIL_con_mlcape_030.txt.gz
CAPE
1074 808 1000 928 827 727 845 967 736 753 404 110 22 0 0 0 0 0 0 1 0 0
1203 1173 1239 1189 930 890 760 580 595 536 288 98 31 2 43 7 0 0 0 0 0 0
1044 1104 1456 1480 1291 722 501 470 398 396 257 153 66 35 32 13 14 0 0 0 0 0
1376 1159 1060 1697 1746 1326 712 581 391 476 369 266 200 35 29 21 42 4 0 8 4 0
1546 1586 1269 1079 1554 1789 1345 729 574 568 548 429 330 186 16 25 41 19 0 1 32 0
1880 1909 1722 1376 1385 1534 1833 1359 1082 804 644 544 514 374 189 84 39 34 1 5 12 1
2017 2178 2103 1917 1604 1527 1609 1596 1321 1182 1044 858 535 511 439 236 123 114 53 25 76 52
2070 2168 2426 2367 2080 1809 1698 1830 1565 1352 1212 1022 725 527 475 352 214 142 150 72 97 190
2472 2391 2382 2552 2512 2177 2030 1905 1757 1449 1344 1166 961 757 562 474 335 274 234 112 5 81
2686 2659 2632 2668 2709 2636 2329 2270 2098 1757 1553 1418 1304 905 711 623 495 464 397 307 69 125
2691 2669 2811 2877 2772 2794 2738 2380 2393 2114 1916 1804 1629 1142 827 738 605 535 482 416 297 25
2656 2612 2835 2839 2850 2826 2886 2678 2648 2430 2123 2002 1863 1369 1005 788 579 642 625 445 321 304
2579 2627 2596 2865 2917 2901 2926 2856 2782 2630 2359 2332 2090 1560 1022 883 721 630 455 217 330 304
2449 2592 2707 2960 3088 3006 2919 2866 2848 2542 2340 2093 1811 1290 1096 797 608 452 174 6 7 0

GFSNIL_con_mlcape_033.txt.gz
CAPE
774 705 659 655 440 533 821 851 1018 1043 645 340 68 12 0 0 0 0 0 0 0 0
790 803 747 667 494 486 766 877 808 953 628 399 77 19 0 0 0 0 0 0 0 0
801 851 844 773 585 613 802 812 683 771 558 398 131 43 10 0 0 0 0 0 0 0
929 1024 1018 942 708 670 839 671 643 764 553 386 151 70 29 1 0 0 0 0 0 0
794 897 989 1105 999 830 800 797 620 587 448 355 188 65 67 54 2 0 0 0 0 0
944 976 887 957 1149 1080 1095 963 690 539 487 342 252 165 103 104 36 0 0 0 0 0
1064 1048 1099 1050 1007 1124 1189 1334 1114 786 676 489 384 320 245 195 158 42 17 13 0 0
1220 1162 1282 1301 1251 1150 1174 1260 1255 1173 812 686 588 569 406 327 306 173 106 59 30 1
1482 1466 1514 1633 1639 1511 1384 1339 1144 1128 1239 1109 896 680 602 590 469 335 258 221 113 98
1670 1600 1657 1909 2000 1843 1658 1529 1410 1190 1111 1069 1155 870 741 731 662 502 394 261 219 124
1904 1789 1814 1905 2015 2111 1983 1762 1631 1396 1294 1183 1212 1003 804 780 792 629 537 472 360 319
2184 2136 2148 2041 2018 2209 2282 2009 1925 1648 1438 1425 1291 975 905 947 783 750 729 585 500 494
2182 2294 2295 2219 2219 2271 2359 2320 2019 1895 1756 1690 1601 1273 1155 996 903 969 935 814 753 554
2314 2322 2281 2389 2475 2476 2455 2438 2195 2091 1988 1776 1831 1517 1128 873 1021 1271 1221 973 773 385

GFSNIL_con_mlcape_036.txt.gz
CAPE
445 443 398 441 450 419 368 368 799 908 817 792 434 265 114 27 0 0 0 0 0 0
484 513 473 493 489 465 512 438 833 905 857 780 450 221 72 14 0 0 0 0 0 0
512 524 537 533 524 519 558 541 602 745 856 724 434 244 73 15 0 0 0 0 0 0
595 621 593 570 552 543 594 591 529 698 763 687 525 266 145 55 6 0 0 0 0 0
663 697 619 596 624 612 633 564 565 658 742 575 534 347 312 177 50 0 0 0 0 0
729 728 694 675 732 718 690 635 543 705 719 641 581 337 339 258 132 56 6 0 0 0
706 739 738 807 875 881 788 695 572 586 838 741 616 420 290 278 221 152 110 33 1 0
705 699 706 734 827 968 997 885 687 573 670 753 655 517 418 284 292 297 262 176 46 13
900 905 862 867 813 792 921 1057 993 758 666 779 781 626 451 421 389 397 397 401 264 46
892 989 1013 1033 1020 939 855 925 1085 1049 856 745 911 761 598 524 552 605 510 501 446 264
1061 1065 1174 1184 1199 1167 1092 1023 1069 1083 1117 1032 937 746 733 738 772 697 619 628 542 501
1309 1269 1278 1355 1424 1469 1470 1356 1261 1304 1200 1189 1170 847 744 688 820 688 757 650 576 612
1406 1415 1379 1441 1541 1683 1731 1717 1616 1501 1405 1334 1346 998 839 674 817 809 779 746 671 558
1621 1618 1579 1611 1693 1733 1838 1976 1939 1850 1753 1440 1410 1357 923 715 891 899 912 994 930 841